This demonstration page uses our WeatherBlox Daily Observations layout. Learn more.

Left ArrowRight Arrow

39.08367, -84.50855

Hourly Observations for August 10, 2017

Temp ( °F °C ) Dew Point ( °F °C ) Humidity (%) Winds ( mph kmh ) Pressure ( in mb ) Visibility ( mi km ) Precip ( " mm )
12:53 am 00:53 Clear 61 16.1 61 16.1 100 100 N N/A 30.16 1021 10 16.0934 N/A
1:53 am 01:53 Mostly Clear 60 15.6 60 15.6 100 100 N N/A 30.14 1021 9 14.48406 N/A
2:53 am 02:53 Partly Cloudy 61 16.1 60 15.6 97 97 N N/A 30.13 1020 10 16.0934 N/A
3:53 am 03:53 Mostly Clear 60 15.6 60 15.6 100 100 N N/A 30.12 1020 7 11.26538 N/A
4:53 am 04:53 Clear 60 15.6 60 15.6 100 100 N N/A 30.12 1020 8 12.87472 N/A
5:53 am 05:53 Mostly Cloudy 61 16.1 61 16.1 100 100 N N/A 30.12 1020 10 16.0934 N/A
6:53 am 06:53 Mostly Sunny 61 16.1 61 16.1 100 100 NE 3 6 30.12 1020 10 16.0934 N/A
7:53 am 07:53 Sunny 62 16.7 62 16.7 100 100 N N/A 30.13 1020 8 12.87472 N/A
8:53 am 08:53 Sunny 66 18.9 62 16.7 87 87 N N/A 30.14 1021 10 16.0934 N/A
9:53 am 09:53 Sunny 70 21.1 63 17.2 79 79 N N/A 30.13 1020 10 16.0934 N/A
10:53 am 10:53 Sunny 74 23.3 66 18.9 76 76 SSW 6 9 30.13 1020 10 16.0934 N/A
11:53 am 11:53 Sunny 79 26.1 67 19.4 67 67 WSW 7 11 30.12 1020 10 16.0934 N/A
12:53 pm 12:53 Sunny 81 27.2 67 19.4 62 62 SSE 6 9 30.11 1020 10 16.0934 N/A
1:53 pm 13:53 Partly Cloudy 82 27.8 65 18.3 56 56 N N/A 30.1 1019 10 16.0934 N/A
2:53 pm 14:53 Partly Cloudy 83 28.3 64 17.8 53 53 SSW 8 13 30.09 1019 10 16.0934 N/A
3:53 pm 15:53 Partly Cloudy 84 28.9 59 15 43 43 SSW 9 15 30.07 1018 10 16.0934 N/A
4:53 pm 16:53 Sunny 85 29.4 58 14.4 40 40 W 6 9 30.06 1018 10 16.0934 N/A
5:53 pm 17:53 Sunny 84 28.9 58 14.4 41 41 SSW 5 7 30.05 1018 10 16.0934 N/A
6:53 pm 18:53 Sunny 82 27.8 60 15.6 47 47 SW 7 11 30.04 1017 10 16.0934 N/A
7:53 pm 19:53 Sunny 78 25.6 62 16.7 58 58 WSW 7 11 30.04 1017 10 16.0934 N/A
8:53 pm 20:53 Clear 72 22.2 62 16.7 71 71 SSW 5 7 30.06 1018 10 16.0934 N/A
9:53 pm 21:53 Clear 67 19.4 63 17.2 87 87 N N/A 30.06 1018 8 12.87472 N/A
10:53 pm 22:53 Clear 65 18.3 62 16.7 90 90 N N/A 30.07 1018 8 12.87472 N/A
11:53 pm 23:53 Clear 64 17.8 62 16.7 93 93 N N/A 30.07 1018 8 12.87472 N/A

Powered by AerisWeather